[[{"header":{"parameterUnit":"m.s-1","parameterCategory":1,"la1":30.2991,"la2":30.254,"lo1":-89.0895,"lo2":-89.0444,"dy":0.0017,"dx":0.0017,"nx":28,"ny":28,"refTime":"2024-10-04T21:00:00:Z","depth":0,"parameterNumber":2,"parameterNumberName":"U-component_of_WINDS"},"data":[0,0,0,0,0,0,0,0,0,0,0,0,0,0,0,0,0,0,0,0,0,0,0,0,0,0,0,0,0,0,0,0,0,0,0,0,0,0,0,0,0,0,0,0,0,0,0,0,0,0,0,0,0,0,0,0,0,0,-3.0385,-3.0387,0,-3.0537,-3.0539,-3.054,-3.0457,-3.0453,-3.0449,-3.0445,-3.0604,-3.0612,-3.062,0,0,0,0,0,0,0,0,0,0,0,0,0,-3.0029,-3.0036,-3.0385,-3.0387,-3.0389,-3.0537,-3.0539,-3.0541,-3.0458,-3.0453,-3.0447,-3.0443,-3.0602,-3.0611,-3.0621,0,0,0,0,0,0,0,0,0,0,0,0,0,-3.0183,-3.0039,-3.0385,-3.0365,-3.0365,-3.0536,-3.0539,-3.0541,-3.0459,-3.0452,-3.0446,-3.044,-3.0598,-3.061,-3.0622,-3.0823,0,0,-3.066,-3.0665,0,0,0,0,0,0,0,0,-3.0174,-3.0196,-3.0366,-3.0367,-3.0367,-3.0471,-3.0472,-3.0636,-3.046,-3.0423,-3.0444,-3.0437,-3.0566,-3.058,-3.0622,-3.0831,-3.0837,-3.0661,-3.0668,-3.0673,-3.0677,0,0,0,0,0,0,0,-3.0164,-3.0189,-3.0445,-3.0369,-3.0369,-3.0351,-3.0366,-3.0503,-3.0528,-3.0426,-3.042,-3.0439,-3.0565,-3.0611,-3.0625,-3.084,-3.066,-3.0671,-3.0679,-3.0684,-3.1225,-3.1231,0,0,0,0,0,0,-3.0154,-3.0181,-3.044,-3.045,-3.0253,-3.0362,-3.0379,-3.0444,-3.0526,-3.0532,-3.0444,-3.0435,-3.0593,-3.0611,-3.0631,-3.0874,-3.0673,-3.0685,-3.0692,-3.1218,-3.1226,-3.1234,0,0,0,0,0,0,-3.0146,-3.0178,-3.0434,-3.0314,-3.0345,-3.0375,-3.0449,-3.0451,-3.0497,-3.054,-3.0544,-3.0487,-3.0589,-3.0614,-3.0777,-3.0879,-3.069,-3.0701,-3.1209,-3.122,-3.123,-3.1361,0,0,0,0,0,0,-3.0137,-3.0175,-3.0251,-3.0316,-3.0352,-3.0576,-3.0455,-3.0458,-3.0517,-3.0506,-3.0581,-3.0587,-3.0586,-3.0759,-3.0789,-3.0892,-3.0711,-3.12,-3.1214,-3.1227,-3.1348,-3.1375,-3.1398,0,0,0,0,0,-3.0124,-3.0281,-3.0255,-3.0287,-3.0446,-3.0582,-3.0603,-3.0597,-3.0526,-3.0603,-3.0631,-3.0585,-3.0862,-3.0776,-3.0809,-3.0918,-3.1194,-3.121,-3.1226,-3.1337,-3.1369,-3.1397,0,0,0,0,0,0,-3.0228,-3.029,-3.0261,-3.0443,-3.0508,-3.0568,-3.0664,-3.0631,-3.0718,-3.0704,-3.0694,-3.0712,-3.0882,-3.0916,-3.0819,-3.1118,-3.1017,-3.104,-3.109,-3.1122,-3.1147,-3.1136,-3.0721,0,0,0,0,0,-3.0272,-3.0376,-3.0424,-3.0581,-3.0615,-3.0635,-3.0693,-3.0683,-3.075,-3.0778,-3.0817,-3.0886,-3.0989,-3.1057,-3.1153,-3.1351,-3.1369,-3.1443,-3.1468,-3.1488,-3.1509,-3.162,-3.1655,-3.1286,-3.1286,-3.1285,0,0,-3.0364,-3.0411,-3.0477,-3.0603,-3.0652,-3.0762,-3.0658,-3.0778,-3.0861,-3.0796,-3.0953,-3.0985,-3.1061,-3.1244,-3.1326,-3.1277,-3.1615,-3.1508,-3.1524,-3.1534,-3.164,-3.1675,-3.1706,-3.1296,-3.1295,-3.1293,0,0,-3.0589,-3.0633,-3.0771,-3.0822,-3.0897,-3.0909,-3.0943,-3.1008,-3.1027,-3.1183,-3.1139,-3.1237,-3.1413,-3.1471,-3.1523,-3.1772,-3.1734,-3.1804,-3.1936,-3.2044,-3.2074,-3.2099,-3.2192,-3.2225,-3.1824,-3.1825,-3.1825,0,-3.0695,-3.0857,-3.0846,-3.097,-3.1029,-3.0975,-3.1116,-3.1166,-3.127,-3.1313,-3.1256,-3.1478,-3.1525,-3.1722,-3.1783,-3.1826,-3.1866,-3.1796,-3.207,-3.2096,-3.212,-3.2208,-3.2243,-3.1833,-3.1832,-3.1831,-3.183,0,-3.0986,-3.1099,-3.1201,-3.1303,-3.1372,-3.1504,-3.1515,-3.1587,-3.1572,-3.1591,-3.1754,-3.1808,-3.1917,-3.1962,-3.1948,-3.2159,-3.2126,-3.207,-3.1969,-3.2163,-3.2246,-3.228,-3.1845,-3.1842,-3.1839,-3.1837,0,0,-3.128,-3.1375,-3.1413,-3.146,-3.154,-3.1628,-3.1759,-3.1864,-3.1929,-3.2002,-3.2114,-3.2265,-3.2215,-3.2274,-3.2266,-3.2361,-3.256,-3.2293,-3.2295,-3.2344,-3.28,-3.2844,-3.2883,-3.2534,-3.254,-3.2545,-3.2795,0,-3.1513,-3.1741,-3.1735,-3.1948,-3.2055,-3.2007,-3.2121,-3.2184,-3.2206,-3.2302,-3.2326,-3.2435,-3.2358,-3.2394,-3.2485,-3.2516,-3.2652,-3.2498,-3.2642,-3.2647,-3.2627,-3.2926,-3.2972,-3.3205,-3.2827,-3.2832,-3.2836,0,-3.1815,-3.1899,-3.2123,-3.219,-3.2235,-3.2338,-3.2436,-3.2526,-3.2598,-3.2608,-3.2675,-3.2653,-3.2789,-3.2682,-3.2872,-3.2767,-3.2826,-3.285,-3.2859,-3.2874,-3.2755,-3.2953,-3.3279,-3.3315,-3.2886,-3.2882,-3.2879,0,-3.2012,-3.2181,-3.2337,-3.2378,-3.246,-3.2534,-3.2572,-3.2637,-3.2702,-3.2788,-3.2831,-3.2932,-3.2988,-3.3068,-3.3075,-3.2996,-3.3267,-3.316,-3.3282,-3.3282,-3.3343,-3.334,-3.3686,-3.3376,-3.3375,-3.3375,-3.3374,0,-3.2274,-3.2414,-3.2427,-3.2524,-3.268,-3.2673,-3.2829,-3.286,-3.2919,-3.3023,-3.2986,-3.3085,-3.3086,-3.3188,-3.3194,-3.3353,-3.3377,-3.3391,-3.3392,-3.3396,-3.3395,-3.3437,-3.3422,-3.3384,-3.3382,-3.338,-3.3378,0,-3.2521,-3.2535,-3.2703,-3.2767,-3.2787,-3.29,-3.2955,-3.3049,-3.3067,-3.32,-3.323,-3.3261,-3.3379,-3.3393,-3.353,-3.3535,-3.3727,-3.3708,-3.3703,-3.3701,-3.3823,-3.3813,-3.4211,-3.4264,-3.3916,-3.392,-3.3922,0,-3.2689,-3.2795,-3.2871,-3.2938,-3.2979,-3.3087,-3.3153,-3.3151,-3.3222,-3.3314,-3.3398,-3.3512,-3.3603,-3.3795,-3.383,-3.3936,-3.3923,-3.4055,-3.3938,-3.3941,-3.3929,-3.3924,-3.3936,-3.4078,-3.4082,-3.4085,-3.4088,0,-3.2986,-3.2988,-3.3084,-3.3185,-3.3265,-3.3344,-3.3418,-3.3475,-3.3483,-3.3565,-3.3685,-3.3756,-3.3897,-3.4013,-3.4118,-3.4159,-3.4127,-3.4124,-3.4158,-3.4166,-3.4159,-3.4168,-3.3768,-3.4115,-3.4112,-3.411,-3.4109,-3.4108,-3.3201,-3.3294,-3.3363,-3.3473,-3.3528,-3.3599,-3.3691,-3.3722,-3.3822,-3.3936,-3.3929,-3.4063,-3.4135,-3.4273,-3.4322,-3.4428,-3.4385,-3.4434,-3.4447,-3.446,-3.4474,-3.414,-3.4447,-3.4446,-3.4445,-3.4445,-3.4444,0,-3.3499,-3.3541,-3.3642,-3.3747,-3.3834,-3.3794,-3.3875,-3.3952,-3.4069,-3.4139,-3.423,-3.437,-3.4482,-3.4528,-3.4638,-3.4715,-3.4704,-3.4745,-3.4741,-3.4752,-3.4504,-3.4465,-3.4752,-3.4752,-3.4752,-3.4752,-3.4752,-3.4752,-3.3664,-3.3822,-3.3834,-3.402,-3.4061,-3.4191,-3.4242,-3.4308,-3.4364,-3.4522,-3.4615,-3.4643,-3.4704,-3.482,-3.4922,-3.4933,-3.4977,-3.5026,-3.503,-3.4799,-3.4768,-3.4739,-3.4702,-3.5034,-3.5035,-3.5269,-3.5271,-3.5273]},{"header":{"parameterUnit":"m.s-1","parameterCategory":1,"la1":30.2991,"la2":30.254,"lo1":-89.0895,"lo2":-89.0444,"dy":0.0017,"dx":0.0017,"nx":28,"ny":28,"refTime":"2024-10-04T21:00:00:Z","depth":0,"parameterNumber":3,"parameterNumberName":"V-component_of_WINDS"},"data":[0,0,0,0,0,0,0,0,0,0,0,0,0,0,0,0,0,0,0,0,0,0,0,0,0,0,0,0,0,0,0,0,0,0,0,0,0,0,0,0,0,0,0,0,0,0,0,0,0,0,0,0,0,0,0,0,0,0,-2.7592,-2.7592,0,-2.762,-2.762,-2.7621,-2.7589,-2.7588,-2.7587,-2.7585,-2.7614,-2.7615,-2.7617,0,0,0,0,0,0,0,0,0,0,0,0,0,-2.751,-2.7511,-2.7592,-2.7592,-2.7593,-2.762,-2.762,-2.7621,-2.7589,-2.7588,-2.7586,-2.7585,-2.7613,-2.7615,-2.7617,0,0,0,0,0,0,0,0,0,0,0,0,0,-2.7542,-2.7512,-2.7592,-2.758,-2.758,-2.762,-2.762,-2.7621,-2.7589,-2.7588,-2.7586,-2.7584,-2.7612,-2.7615,-2.7618,-2.7671,0,0,-2.7626,-2.7628,0,0,0,0,0,0,0,0,-2.754,-2.7545,-2.7582,-2.7581,-2.758,-2.7599,-2.7602,-2.7638,-2.759,-2.7586,-2.7585,-2.7583,-2.761,-2.7613,-2.7622,-2.7672,-2.7674,-2.7627,-2.7628,-2.7629,-2.763,0,0,0,0,0,0,0,-2.7538,-2.7544,-2.7603,-2.7582,-2.7581,-2.7573,-2.7576,-2.7608,-2.7608,-2.7586,-2.7584,-2.7587,-2.761,-2.762,-2.7623,-2.7674,-2.7626,-2.7629,-2.7631,-2.7632,-2.7768,-2.7769,0,0,0,0,0,0,-2.7537,-2.7542,-2.7602,-2.7604,-2.7556,-2.7576,-2.7579,-2.7595,-2.7607,-2.7607,-2.7589,-2.7586,-2.7616,-2.7619,-2.7624,-2.7686,-2.7629,-2.7632,-2.7634,-2.7766,-2.7768,-2.777,0,0,0,0,0,0,-2.7536,-2.7543,-2.7601,-2.7573,-2.7579,-2.7579,-2.7598,-2.7596,-2.7607,-2.761,-2.7609,-2.76,-2.7614,-2.762,-2.7659,-2.7687,-2.7633,-2.7636,-2.7763,-2.7766,-2.7769,-2.7812,0,0,0,0,0,0,-2.7534,-2.7543,-2.7564,-2.7573,-2.7581,-2.7637,-2.7599,-2.7598,-2.7612,-2.7608,-2.7619,-2.762,-2.7613,-2.7655,-2.7662,-2.7689,-2.7638,-2.7761,-2.7765,-2.7768,-2.7808,-2.7816,-2.7822,0,0,0,0,0,-2.7531,-2.7575,-2.7565,-2.7572,-2.7607,-2.7639,-2.7643,-2.7635,-2.7614,-2.7634,-2.7636,-2.7619,-2.7682,-2.766,-2.7667,-2.7696,-2.7759,-2.7764,-2.7768,-2.7805,-2.7814,-2.7822,0,0,0,0,0,0,-2.7569,-2.7576,-2.7565,-2.7613,-2.7626,-2.7633,-2.7659,-2.7646,-2.7664,-2.766,-2.7649,-2.7652,-2.7694,-2.7699,-2.7673,-2.7747,-2.7717,-2.7723,-2.7743,-2.7752,-2.7759,-2.7757,-2.764,0,0,0,0,0,-2.7582,-2.7608,-2.7613,-2.7655,-2.7662,-2.7659,-2.7673,-2.7666,-2.7678,-2.7683,-2.7687,-2.77,-2.7722,-2.7737,-2.7758,-2.7808,-2.781,-2.7831,-2.7839,-2.7845,-2.785,-2.7876,-2.7885,-2.7784,-2.7784,-2.7784,0,0,-2.7612,-2.7619,-2.7636,-2.7663,-2.7671,-2.7697,-2.7664,-2.7693,-2.7712,-2.7687,-2.7725,-2.7728,-2.7741,-2.7786,-2.7806,-2.7791,-2.7878,-2.785,-2.7855,-2.7857,-2.7881,-2.7891,-2.7899,-2.7787,-2.7787,-2.7786,0,0,-2.7678,-2.7686,-2.7722,-2.7731,-2.7744,-2.7742,-2.775,-2.776,-2.7761,-2.7799,-2.778,-2.7802,-2.7841,-2.7851,-2.7861,-2.7929,-2.7914,-2.7936,-2.7974,-2.7999,-2.8007,-2.8014,-2.8038,-2.8046,-2.7941,-2.7941,-2.7941,0,-2.7713,-2.7751,-2.7742,-2.7772,-2.7784,-2.7762,-2.7797,-2.7807,-2.7826,-2.7835,-2.7818,-2.7865,-2.7872,-2.7919,-2.7935,-2.7944,-2.7953,-2.7935,-2.8007,-2.8014,-2.802,-2.8042,-2.8051,-2.7944,-2.7943,-2.7943,-2.7943,0,-2.7793,-2.782,-2.7847,-2.7866,-2.7881,-2.7914,-2.7908,-2.7924,-2.7915,-2.7915,-2.7952,-2.796,-2.7981,-2.7992,-2.7983,-2.8036,-2.8027,-2.8008,-2.7978,-2.8032,-2.8053,-2.8062,-2.7947,-2.7946,-2.7946,-2.7945,0,0,-2.7885,-2.7897,-2.7907,-2.7915,-2.7927,-2.7948,-2.7979,-2.7999,-2.8013,-2.8027,-2.8052,-2.8085,-2.8068,-2.8079,-2.8071,-2.8094,-2.8146,-2.8072,-2.8072,-2.8085,-2.8204,-2.8217,-2.8228,-2.8136,-2.8137,-2.8139,-2.8203,0,-2.7951,-2.8006,-2.7997,-2.8049,-2.8073,-2.8052,-2.8079,-2.8089,-2.8089,-2.8109,-2.8108,-2.8131,-2.8107,-2.8114,-2.8135,-2.8135,-2.817,-2.813,-2.8159,-2.816,-2.8156,-2.8239,-2.8254,-2.8314,-2.8211,-2.8212,-2.8213,0,-2.8036,-2.8053,-2.8107,-2.8114,-2.8124,-2.8148,-2.8166,-2.8185,-2.8196,-2.8194,-2.8206,-2.8194,-2.8224,-2.8193,-2.8234,-2.8207,-2.8218,-2.822,-2.8222,-2.8224,-2.819,-2.8243,-2.8333,-2.8342,-2.8226,-2.8225,-2.8224,0,-2.8098,-2.8133,-2.817,-2.8177,-2.8186,-2.8204,-2.8209,-2.8217,-2.823,-2.8245,-2.8253,-2.8271,-2.8281,-2.8295,-2.8288,-2.8266,-2.833,-2.8299,-2.8329,-2.8329,-2.8344,-2.8343,-2.8436,-2.8351,-2.8351,-2.8351,-2.835,0,-2.8173,-2.8207,-2.8197,-2.822,-2.8257,-2.8246,-2.8283,-2.8285,-2.8292,-2.8315,-2.8297,-2.8318,-2.8307,-2.8327,-2.8322,-2.8356,-2.8361,-2.836,-2.8358,-2.8361,-2.8361,-2.8368,-2.8364,-2.8353,-2.8352,-2.8352,-2.8352,0,-2.8248,-2.8243,-2.8282,-2.8287,-2.8289,-2.8316,-2.832,-2.8341,-2.8338,-2.8366,-2.8372,-2.8369,-2.8392,-2.8386,-2.841,-2.8406,-2.8449,-2.8442,-2.8446,-2.8444,-2.8475,-2.8472,-2.8576,-2.8589,-2.8495,-2.8496,-2.8497,0,-2.8296,-2.8322,-2.8329,-2.8343,-2.8348,-2.8371,-2.8383,-2.8373,-2.8386,-2.8399,-2.8418,-2.8439,-2.8455,-2.8492,-2.8491,-2.851,-2.8503,-2.8538,-2.8505,-2.8508,-2.8503,-2.8501,-2.8503,-2.8544,-2.8545,-2.8546,-2.8547,0,-2.8382,-2.8378,-2.8397,-2.8414,-2.843,-2.8443,-2.8455,-2.8466,-2.8457,-2.8473,-2.8495,-2.8508,-2.8532,-2.8553,-2.8569,-2.8573,-2.8559,-2.8557,-2.8565,-2.8569,-2.857,-2.8569,-2.8464,-2.8555,-2.8554,-2.8553,-2.8553,-2.8553,-2.8445,-2.8467,-2.8475,-2.8496,-2.8503,-2.8514,-2.8533,-2.8533,-2.8552,-2.8571,-2.8563,-2.8589,-2.8597,-2.8618,-2.8624,-2.8643,-2.863,-2.8642,-2.8645,-2.8648,-2.8651,-2.8567,-2.8646,-2.8646,-2.8646,-2.8646,-2.8645,0,-2.853,-2.8534,-2.8553,-2.857,-2.8586,-2.857,-2.8581,-2.8596,-2.8619,-2.8628,-2.8644,-2.8669,-2.8688,-2.8689,-2.8707,-2.8722,-2.8716,-2.8727,-2.8726,-2.8727,-2.8662,-2.8654,-2.8732,-2.8732,-2.8732,-2.8732,-2.8732,-2.8732,-2.8576,-2.8611,-2.8608,-2.8645,-2.8649,-2.8674,-2.8682,-2.8691,-2.8698,-2.8727,-2.8743,-2.8743,-2.8748,-2.8766,-2.8783,-2.8782,-2.879,-2.8804,-2.8801,-2.8741,-2.8732,-2.8724,-2.8715,-2.8806,-2.8806,-2.8864,-2.8865,-2.8865]}]]